Wind_Speed
10 9 8 7 6 5 5 5 5 5 5 5 6 6 7 7 8 8 9 9 10 11 12 13 15 16 17 17 17 17 18 19 20 20 20 21 21 22 25 29 33 33
11 9 8 7 6 6 5 5 5 6 6 6 7 7 8 8 9 10 10 11 11 11 12 13 15 16 17 18 18 18 18 19 20 20 20 21 22 22 23 26 30 33
11 10 9 8 7 6 6 6 6 6 6 7 7 8 8 9 10 10 11 12 12 13 13 14 15 17 17 18 18 19 19 19 20 21 21 22 22 23 24 24 27 32
12 10 9 8 7 7 6 6 7 7 7 7 8 8 9 9 11 12 13 14 14 14 15 16 17 17 18 18 19 20 20 21 21 21 22 23 22 23 25 24 26 31
12 10 9 8 8 7 7 7 8 8 8 8 8 9 10 12 14 14 14 14 15 16 17 18 18 18 18 18 19 20 21 21 21 21 22 23 23 24 24 24 25 29
12 10 9 9 8 8 8 8 9 9 9 9 10 11 11 13 15 15 15 15 16 17 18 19 19 19 19 18 19 20 20 21 21 21 22 23 24 25 24 25 25 26
12 10 10 9 9 9 9 9 10 10 10 11 12 13 14 15 16 16 17 17 17 18 19 20 20 20 20 19 20 20 20 22 21 22 23 24 25 26 26 26 27 27
11 10 10 9 9 10 10 11 11 11 12 12 13 15 17 18 18 18 18 18 19 19 20 21 21 21 21 20 21 21 21 22 22 22 23 24 25 26 27 27 27 28
11 10 10 10 10 10 11 11 12 12 13 13 15 17 19 20 20 20 20 20 21 21 21 21 22 22 22 22 22 22 23 22 22 23 23 24 25 26 26 27 28 29
11 10 10 10 10 10 11 11 12 12 14 15 16 17 19 21 21 21 22 22 23 23 23 23 23 23 23 23 23 24 24 24 24 24 25 25 26 26 26 27 28 29
11 10 10 10 10 10 10 11 12 13 14 15 16 17 20 21 22 22 23 23 24 24 24 25 25 25 25 24 25 25 25 26 25 25 26 26 27 27 27 28 28 29
10 10 9 9 10 10 10 11 12 13 14 15 16 19 21 21 22 23 23 24 26 26 26 26 26 26 26 26 26 26 26 27 27 28 27 27 28 28 28 29 29 29
10 9 9 9 9 9 10 11 12 13 14 16 18 20 21 22 22 23 24 25 26 27 27 28 28 27 27 27 27 27 27 27 28 29 29 29 29 29 29 30 31 31
9 9 8 9 9 9 10 11 12 14 15 17 19 20 21 22 22 24 25 25 26 27 27 27 28 28 28 28 28 28 28 29 29 30 30 30 30 30 30 30 32 32
9 8 8 9 9 10 10 12 14 15 17 19 20 20 22 23 23 24 25 26 27 27 27 28 29 29 29 29 28 27 27 28 29 30 30 30 30 31 31 31 32 32
8 8 8 9 9 9 11 13 15 17 18 19 20 21 22 23 24 25 26 27 28 28 29 30 31 31 31 31 30 30 29 28 28 29 29 30 30 31 31 32 32 32
8 8 8 9 8 10 12 14 16 17 18 19 20 21 22 23 24 25 26 27 28 29 30 32 33 33 33 33 33 33 33 32 31 30 29 29 30 31 31 31 32 32
7 7 8 8 9 12 14 15 16 17 18 20 21 22 23 23 24 25 25 26 28 29 31 32 34 34 34 35 35 35 35 35 34 33 32 31 31 31 31 31 31 31
7 7 7 8 10 13 15 15 16 18 19 20 21 22 24 24 25 26 26 27 28 29 31 32 33 34 35 36 36 37 37 37 37 37 35 34 33 33 32 32 31 31
6 7 8 9 10 13 15 16 18 19 20 20 21 22 25 25 26 27 27 27 28 29 30 31 32 33 34 35 35 36 36 37 38 38 38 38 36 35 35 34 33 32
6 7 9 9 10 13 15 17 19 20 21 21 21 23 25 26 26 27 27 28 29 29 31 32 32 32 34 34 36 36 35 37 37 36 39 41 39 37 37 37 36 35
7 8 9 10 10 13 16 19 20 20 21 21 23 25 26 26 26 27 27 29 30 30 32 34 34 34 35 35 36 37 37 39 38 36 38 41 41 39 38 37 37 37
7 8 9 10 11 14 17 19 20 20 21 22 23 25 25 26 26 27 27 29 30 30 32 34 35 35 35 36 36 36 37 37 36 36 36 38 39 39 38 37 38 38
7 8 10 12 13 15 17 19 20 20 21 21 23 25 26 26 26 27 27 28 29 31 32 34 37 37 37 37 37 37 38 36 34 34 36 36 36 37 37 37 38 39
7 8 10 12 13 14 17 19 20 20 20 21 23 25 26 26 26 27 28 29 30 32 33 34 37 37 37 38 38 38 39 38 35 34 35 35 35 35 36 36 37 38
7 8 10 11 12 14 15 17 19 20 20 22 24 25 25 25 26 27 30 31 30 31 32 33 35 37 37 36 37 36 37 37 36 35 33 33 34 34 34 35 36 36
Wind_Direction
186 189 190 193 198 201 205 215 226 236 243 249 258 263 264 265 263 266 267 267 267 266 266 269 270 272 273 273 272 270 270 270 268 264 261 259 250 240 236 231 228 227
186 188 190 195 200 202 206 217 229 242 249 252 259 264 266 266 264 266 267 267 269 268 267 269 268 269 270 270 269 268 267 267 267 266 262 260 256 249 241 235 233 231
185 187 191 195 202 204 208 223 237 246 254 257 261 265 267 268 267 268 269 271 273 273 272 272 270 270 269 269 268 266 265 264 264 264 263 261 258 254 248 240 236 233
185 187 192 196 203 209 214 228 239 245 254 260 264 267 270 273 272 271 272 274 274 276 276 274 272 271 270 269 269 267 265 264 261 262 264 263 258 254 252 246 240 236
186 187 193 199 204 211 220 229 237 244 253 261 267 271 275 279 279 277 275 274 274 276 276 274 272 271 271 270 268 268 266 264 261 259 260 261 260 256 252 248 245 240
186 190 197 202 206 214 223 232 238 244 250 257 265 270 275 279 280 279 278 277 276 276 274 272 272 271 270 270 268 268 266 264 262 260 258 258 258 257 253 249 247 243
186 191 199 206 212 219 226 235 239 241 247 256 266 273 278 281 280 279 279 279 277 276 273 271 270 269 268 268 267 267 266 265 263 261 260 259 258 257 256 254 250 245
188 193 203 210 216 224 231 237 241 242 250 263 273 279 280 279 278 277 277 277 276 275 273 270 268 267 267 266 265 264 264 264 263 262 261 261 261 259 256 255 254 249
194 198 207 213 219 230 236 240 245 248 255 268 276 279 279 276 275 275 275 274 274 273 271 269 267 265 264 263 262 261 261 261 261 261 261 260 262 262 258 256 256 254
199 203 211 216 224 235 241 245 250 255 263 272 276 277 276 275 274 273 272 272 272 271 270 268 266 265 264 261 260 260 259 260 259 259 259 258 259 261 262 260 257 256
202 209 217 221 231 240 246 252 258 264 270 275 278 277 276 275 273 271 270 269 269 269 269 268 267 265 264 261 260 259 258 258 258 257 257 256 256 256 258 260 258 257
207 216 223 228 238 246 252 260 266 271 275 278 279 279 277 275 273 271 269 266 266 268 268 268 268 266 264 262 260 258 257 256 256 255 255 254 255 254 253 254 255 255
212 220 228 235 245 252 258 265 271 275 280 282 281 280 278 275 274 273 271 269 267 267 267 267 267 265 264 262 260 257 256 255 254 254 254 253 253 254 253 251 249 250
217 226 233 241 249 255 262 270 278 282 283 283 282 280 278 276 276 275 273 271 269 268 267 267 266 265 263 261 259 257 255 254 254 254 253 254 254 253 254 253 249 247
219 226 233 243 249 256 268 277 283 285 284 284 282 280 279 278 277 275 274 272 269 268 267 266 264 263 261 259 257 256 255 254 254 254 253 253 254 253 253 252 251 248
220 227 235 244 252 263 277 283 283 284 285 285 284 282 282 281 280 278 277 275 272 269 268 266 264 262 260 258 256 255 255 256 255 255 254 252 252 253 253 252 251 249
223 233 240 247 260 275 283 283 283 284 285 285 286 286 285 285 283 282 279 277 275 272 269 267 265 262 261 260 258 256 256 256 256 257 256 255 253 252 251 251 251 250
228 239 246 253 272 284 284 282 282 284 285 286 288 290 289 287 285 282 280 278 276 274 271 268 265 263 263 262 260 259 257 255 255 256 256 256 255 254 252 250 249 249
234 243 251 262 279 287 285 282 282 283 285 288 291 292 291 289 286 283 281 279 277 276 273 271 268 266 265 264 262 261 259 255 253 254 255 255 254 253 253 251 250 249
238 246 258 270 283 287 283 280 282 284 286 290 294 293 291 290 288 286 284 281 279 278 276 274 271 270 268 267 266 264 261 258 254 252 253 255 253 252 252 251 250 249
242 252 265 277 282 283 281 281 283 286 289 293 295 294 291 290 289 288 285 284 281 279 278 276 273 272 271 269 268 266 264 261 258 253 252 254 253 251 250 249 248 248
250 259 270 278 281 282 282 284 286 288 293 296 295 293 292 291 291 289 287 286 284 281 279 277 275 273 272 270 268 266 264 261 258 255 254 253 252 251 249 248 246 246
258 266 271 276 280 282 284 286 289 292 296 297 295 295 295 294 293 292 291 290 287 284 282 279 278 276 273 271 268 267 265 261 256 254 254 253 252 251 249 247 245 243
267 274 278 280 282 285 287 289 291 294 297 298 297 297 297 297 296 295 294 293 290 287 286 284 281 279 276 273 269 267 265 263 258 256 255 253 252 251 248 246 245 242
273 276 279 283 286 288 289 291 292 296 299 300 299 299 299 299 299 299 297 295 293 292 291 288 285 282 279 276 272 267 263 260 258 257 255 254 253 251 248 246 244 242
269 274 278 282 286 289 290 291 294 298 302 304 303 301 302 302 302 301 299 298 297 296 295 292 288 285 282 278 273 269 264 260 257 255 254 253 252 249 247 245 243 242
Height
804 805 805 806 807 807 807 808 808 808 808 808 808 807 807 806 806 806 805 805 805 805 805 805 805 804 803 802 802 801 800 799 798 797 796 795 795 794 794 795 796 798
802 803 804 804 805 806 806 807 807 807 807 807 807 806 806 805 804 804 803 803 803 803 803 803 802 802 801 800 800 799 798 797 796 795 794 793 792 792 792 792 793 794
800 801 802 803 804 804 805 805 805 806 806 806 806 805 805 804 803 803 802 802 801 801 801 801 800 800 799 798 798 797 796 795 794 793 792 791 790 790 789 789 790 790
798 799 800 801 802 803 803 804 804 804 805 805 804 804 804 803 803 802 801 800 800 799 799 799 798 798 797 797 796 795 793 793 792 792 790 789 788 787 786 786 786 786
796 797 798 799 800 801 802 802 803 803 803 803 803 803 803 802 802 801 799 799 798 797 797 797 797 796 796 795 794 793 792 790 790 789 788 787 786 785 784 783 783 783
794 795 796 797 798 799 800 800 801 801 801 801 801 801 800 800 800 799 798 797 796 796 795 795 795 794 794 793 792 791 790 788 787 787 786 785 784 782 781 780 779 779
792 794 795 796 796 797 798 798 798 798 799 799 798 798 798 798 798 797 797 796 795 794 793 793 793 792 792 791 790 789 788 787 785 785 784 782 781 780 779 777 776 775
791 792 793 794 794 795 795 796 796 796 796 796 796 796 796 796 796 795 795 794 793 792 792 791 791 790 789 789 788 787 786 785 783 782 781 780 779 777 776 775 774 772
789 790 791 792 792 793 793 793 793 793 794 793 793 793 793 793 793 792 792 791 791 790 789 789 788 787 787 786 785 784 783 782 781 780 779 778 777 775 774 773 771 769
787 788 789 789 790 790 790 791 791 791 791 790 790 790 790 790 790 789 789 788 788 787 786 786 785 784 784 783 782 782 780 780 779 778 776 775 774 773 772 771 769 767
785 786 787 787 788 788 788 789 789 789 788 788 787 787 787 787 787 786 786 785 785 784 783 782 782 781 781 780 779 779 778 777 776 775 773 772 771 770 769 768 767 765
783 784 784 785 785 786 786 786 786 786 786 785 785 784 784 784 784 783 783 782 781 780 779 778 778 778 777 776 776 775 774 773 772 771 770 768 767 766 765 764 764 763
780 781 782 783 783 784 784 784 784 784 783 783 783 782 782 781 781 780 779 778 777 776 776 775 774 774 773 772 772 771 771 770 769 768 766 765 763 762 761 760 759 759
779 780 780 781 781 782 782 782 782 782 781 781 781 780 780 779 778 777 776 775 774 773 772 771 770 769 768 768 767 767 766 766 765 764 763 762 760 759 757 756 754 754
777 778 778 779 779 780 780 780 780 780 780 779 779 778 777 776 775 774 773 771 770 769 768 767 766 765 763 763 763 762 762 761 760 760 759 758 756 755 754 752 751 750
775 776 776 777 777 778 778 778 779 779 778 777 777 776 775 774 773 771 770 768 767 766 765 763 761 760 758 758 758 758 758 758 757 756 755 754 752 751 749 748 746 745
773 774 774 775 776 776 777 777 777 777 776 775 774 773 772 771 770 769 767 766 764 762 761 759 757 755 754 754 754 754 755 754 753 752 751 750 748 746 745 743 742 741
771 772 772 773 774 774 775 775 775 774 773 773 772 771 770 769 767 766 764 763 761 758 756 754 752 751 750 750 749 749 750 751 750 749 747 745 744 742 740 739 737 736
769 770 771 771 771 772 774 774 773 772 771 770 769 769 768 766 765 763 761 759 757 755 752 750 748 747 746 745 745 745 745 746 745 744 743 741 739 738 736 734 733 731
767 768 769 769 769 770 772 772 771 770 768 768 767 766 765 763 761 760 758 756 754 751 749 746 744 743 742 741 741 740 741 741 740 739 738 736 734 733 732 730 729 727
765 766 767 767 767 768 769 769 768 767 766 766 765 763 762 759 758 756 754 752 750 748 745 742 739 738 738 737 736 736 737 736 734 733 732 730 728 728 727 726 725 723
763 764 765 765 765 766 766 766 765 764 764 763 762 760 758 756 754 752 750 748 745 744 741 737 734 734 733 732 732 732 732 731 729 728 726 723 722 721 721 720 720 719
762 762 763 763 763 763 763 762 762 761 762 761 759 757 755 753 750 748 746 743 741 739 736 732 729 728 728 727 726 727 726 724 723 722 719 717 715 715 715 714 713 713
760 760 761 761 760 760 760 760 760 759 759 758 757 754 752 750 747 744 742 739 737 734 732 728 724 722 722 721 720 721 720 718 717 716 713 711 710 709 709 708 707 707
759 759 759 759 759 758 758 758 758 757 757 756 754 752 749 746 744 741 738 735 733 730 727 724 720 716 716 714 713 713 713 712 711 709 706 705 704 703 702 702 701 700
757 757 757 757 757 757 757 757 756 755 755 754 752 749 747 744 741 738 735 732 729 726 723 720 716 712 710 708 706 706 706 705 705 703 700 700 699 698 696 695 695 694